Home > Weather > Langesund > Past weeks

Flag for Norway Weather for the Past 2 Weeks in Langesund, Norway

Now
42 °F

Quite cool.


Feels Like: 42 °F
Forecast: 41 / 64 °F
Wind: 1 mph from Northeast

Location: Jomfruland Fyr

Current Time: May 7, 2016 at 1:35:09 AM

Latest Report: May 7, 2016 at 12:00 AM


Visibility: N/A

Pressure: 30.16 "Hg

Humidity: 89%

Dew Point: 39 °F

Location of LangesundLocation

Historic Weather in Langesund — Graph

°F

Langesund Temperature Yesterday

Maximum temperature yesterday: 55 °F (at 4:00 PM)
Minimum temperature yesterday: 41 °F (at 6:00 AM)
Average temperature yesterday: 49 °F

High & Low Weather Summary for the Past Weeks

 TemperatureHumidityPressure
High55 °F (May 6, 4:00 PM)94% (May 3, 1:00 AM)30.35 "Hg (May 3, 1:00 AM)
Low35 °F (Apr 23, 6:00 AM)25% (Apr 22, 12:00 PM)29.61 "Hg (Apr 25, 1:00 PM)
Average45 °F69%30.00 "Hg
* Reported Apr 21 11:00 PM — May 6 11:00 PM, Langesund, Weather by CustomWeather, © 2016

Note: Actual official high and low records may vary slightly from our data, if they occured in-between our weather recording intervals... More about our weather records

Advertising

Langesund Weather History for the Previous 24 Hours

Scroll right to see more
 ConditionsComfort  
Time TempWeatherWind HumidityBarometerVisibility
11:00 PM
Fri, May 6
45 °FCool.1 mph87%30.16 "HgN/A
10:00 PM45 °FCool.1 mph85%30.16 "HgN/A
9:00 PM47 °FCool.1 mph81%30.16 "HgN/A
8:00 PM51 °FCool.1 mph75%30.16 "HgN/A
7:00 PM53 °FCool.2 mph57%30.17 "HgN/A
6:00 PM55 °FCool.2 mph51%30.17 "HgN/A
5:00 PM54 °FCool.2 mph51%30.19 "HgN/A
4:00 PM55 °FCool.2 mph62%30.20 "HgN/A
3:00 PM54 °FCool.3 mph58%30.22 "HgN/A
2:00 PM54 °FCool.3 mph70%30.23 "HgN/A
1:00 PM54 °FCool.3 mph69%30.24 "HgN/A
12:00 PM53 °FCool.2 mph70%30.25 "HgN/A
11:00 AM53 °FCool.2 mph74%30.25 "HgN/A
10:00 AM52 °FCool.2 mph69%30.26 "HgN/A
9:00 AM49 °FCool.3 mph79%30.26 "HgN/A
8:00 AM47 °FCool.2 mph86%30.27 "HgN/A
7:00 AM45 °FCool.1 mph93%30.26 "HgN/A
6:00 AM41 °FQuite cool.1 mph92%30.26 "HgN/A
5:00 AM42 °FQuite cool.1 mph90%30.26 "HgN/A
4:00 AM44 °FQuite cool.1 mph89%30.27 "HgN/A
3:00 AM45 °FQuite cool.1 mph89%30.27 "HgN/A
2:00 AM46 °FCool.3 mph91%30.28 "HgN/A
1:00 AM47 °FCool.3 mph91%30.28 "HgN/A
Weather by CustomWeather, © 2016

See weather overviewHow to use our weather pages